Starlink 5659

operational
NORAD ID: 55351 Int'l Des: 2023-013 Owner: SPXS Country: US Constellation: starlink
LEOCIRCULAR

关于 Starlink 5659

正在加载描述...

实时位置

正在加载3D地球...

即将过境

高度历史

Altitude vs Time

uPlot chart will show altitude changes over time

两行轨道根数

1 55351U 23013W 25258.46474532 .00000732 00000-0 69248-4 0 9990
2 55351 43.0030 172.2265 0001014 269.6932 90.3794 15.02538602145351
Epoch: Sep 15, 2025 • Age: 13 hours

当前状态

高度 561.9 km
速度 7.59 km/s
星下点 38.87°N, 129.86°W
发射日期 Jan 26, 2023
运行时间 2.6 years
类型 internet

技术详情

分类 Payload
质量 305.00 kg
干质量 290.00 kg
总质量 305.00 kg
长度 0.20 m
直径 2.80 m
跨度 9.00 m
形状 Box + pan
制造商 SPXS
平台类型 Starlink
阶段状态 In Orbit
所有者/国家 SPXS/US

大型星座

Loading constellations...